Weather in Novopetrovo

Russia / Tyumen Oblast     57°11′22″N   69°08′11″E
temp.,
°C
wind,
m/s
gust,
m/s
humid.,
%
clouds,
%
prec.,
mm/h
press.,
hPa
HPBL,
m
10 april, sat
sat1023:00+1ese2699100 0.0 1032315
02:00+1se2599100 0.0 1033294
05:000sse1199100 0.0 103533
08:00+1s1299100 0.0 1037177
11:00+3sse239692 0.0 1038329
14:00+4sse3595100 0.0 1038405
17:00+5sse2694100 0.0 1039385
20:00+3sse1399100 0.0 104061
11 april, sun
sun1123:00+2s2899100 0.0 1040256
02:00+2ssw3898100 0.0 1040316
05:00+2s389668 0.0 1041279
08:00+2ssw3985100 0.0 1040311
11:00+6ssw5969100 0.0 1039487
14:00+9ssw5106376 0.0 1037601
17:00+8ssw51369100 0.0 1036596
20:00+5ssw51576100 0.0 1035454
12 april, mon
mon1223:00+4sw5157883 0.0 1034392
02:00+3sw4138376 0.0 1033336
05:00+4sw31089100 0.0 1033257
08:00+5w3893100 0.0 1032281
11:00+9wnw3584100 0.0 1033582
14:00+10wnw3572100 0.0 10331085
17:00+11nnw3662100 0.0 1034547
20:00+7nnw2283100 0.0 103516
13 april, tue
tue1323:00+5nnw228798 0.0 103625
02:00+3nnw12840 0.0 103710
05:00+2wnw22790 0.0 103810
08:00+5w24704 0.0 1038202
11:00+10w344415 0.0 1038980
14:00+12w35386 0.0 10361322
17:00+12wsw36435 0.0 10351285
20:00+7sw25655 0.0 103480
14 april, wed
wed1423:00+6sw287611 0.0 1033124
02:00+5sw2887100 0.0 1032148
05:00+4sw2485100 0.0 103173
08:00+7sw3982100 0.0 1029279
11:00+12wsw4867100 0.0 1026738
14:00+15w5857100 0.0 10241315
17:00+15w4857100 0.0 10221093
20:00+11w2275100 0.0 102239